Pagrindinis puslapis
METAR-TAF:

METAR-TAF

Oro uostai :

Perryton Ochiltree County Airport

Perryton, Teksasas, Jungtinės Amerikos Valstijos

platuma: 36-24N, ilguma: 100-44W, Aukštis: 890 m

Dabartinis oras

Ataskaita buvo paskelbta 23 minutes, ne 09:15 UTC
Vėjas 6 kt iš Pietų
Temperatūra 12°C
Drėgmė 47%
Slėgis 1022 hPa
Matomumas: 16.1 km
Giedras dangus

METAR: KPYX 020915Z AUTO 17006KT 10SM CLR 12/01 A3017 RMK AO2 T01150013

Laikas: 04:38 (09:38 UTC)


TAF: trūkstamas

Orai ataskaitas ir orų prognozės (METAR, TAF).

turimą stotys yra geltonos ir raudonos taškus žemėlapyje.

Perkelti pele per norėdami pamatyti stoties vardą.

Tada spustelėkite, norėdami matyti oro stebėjimo ir prognozės.

Norėdami pakeisti žemėlapį: spustelėkite ant žalios mygtukų su juodo kryžiaus žemyn,; žalią mygtuką su brūkšneliu, jei norite nutolinti; arba žalių rodyklių gretimoms žemėlapius.


METAR-TAF: